Time,TemperatureF,DewpointF,PressureIn,WindDirection,WindDirectionDegrees,WindSpeedMPH,WindSpeedGustMPH,Humidity,HourlyPrecipIn,Conditions,Clouds,dailyrainin,SoftwareType,DateUTC
2013-10-15 00:00:00,48.0,24.8,29.95,SW,231,0.0,0.0,40,0.00,,,0.00,Wunderground v.1.15,2013-10-15 07:00:00,
2013-10-15 00:06:00,47.9,25.3,29.94,SW,231,0.0,0.0,41,0.00,,,0.00,Wunderground v.1.15,2013-10-15 07:06:00,
2013-10-15 00:12:00,47.7,24.5,29.94,SW,231,0.0,0.0,40,0.00,,,0.00,Wunderground v.1.15,2013-10-15 07:12:00,
2013-10-15 00:18:00,47.6,25.6,29.94,SW,231,0.0,0.0,42,0.00,,,0.00,Wunderground v.1.15,2013-10-15 07:18:00,
2013-10-15 00:23:00,47.4,24.9,29.94,SW,231,0.0,0.0,41,0.00,,,0.00,Wunderground v.1.15,2013-10-15 07:23:00,
2013-10-15 00:29:00,47.3,24.8,29.94,SW,231,0.0,0.0,41,0.00,,,0.00,Wunderground v.1.15,2013-10-15 07:29:00,
2013-10-15 00:35:00,47.1,25.2,29.94,SW,231,0.0,0.0,42,0.00,,,0.00,Wunderground v.1.15,2013-10-15 07:35:00,
2013-10-15 00:40:00,47.0,25.6,29.94,SW,231,0.0,0.0,43,0.00,,,0.00,Wunderground v.1.15,2013-10-15 07:40:00,
2013-10-15 00:45:00,46.8,24.9,29.94,SW,231,0.0,0.0,42,0.00,,,0.00,Wunderground v.1.15,2013-10-15 07:45:00,
2013-10-15 00:52:00,46.8,24.3,29.94,SW,231,0.0,0.0,41,0.00,,,0.00,Wunderground v.1.15,2013-10-15 07:52:00,
2013-10-15 00:58:00,47.0,25.1,29.94,SW,231,0.0,0.0,42,0.00,,,0.00,Wunderground v.1.15,2013-10-15 07:58:00,
2013-10-15 01:04:00,47.0,24.5,29.93,SW,231,0.0,0.0,41,0.00,,,0.00,Wunderground v.1.15,2013-10-15 08:04:00,
2013-10-15 01:09:00,47.0,24.5,29.93,SW,231,0.0,0.0,41,0.00,,,0.00,Wunderground v.1.15,2013-10-15 08:09:00,
2013-10-15 01:15:00,46.8,24.9,29.93,SW,231,0.0,0.0,42,0.00,,,0.00,Wunderground v.1.15,2013-10-15 08:15:00,
2013-10-15 01:20:00,46.8,24.9,29.93,SW,231,0.0,0.0,42,0.00,,,0.00,Wunderground v.1.15,2013-10-15 08:20:00,
2013-10-15 01:25:00,46.7,25.4,29.93,SW,231,0.0,0.0,43,0.00,,,0.00,Wunderground v.1.15,2013-10-15 08:25:00,
2013-10-15 01:31:00,46.5,24.6,29.93,SW,231,0.0,0.0,42,0.00,,,0.00,Wunderground v.1.15,2013-10-15 08:31:00,
2013-10-15 01:36:00,46.4,24.5,29.93,SW,231,0.0,0.0,42,0.00,,,0.00,Wunderground v.1.15,2013-10-15 08:36:00,
2013-10-15 01:42:00,46.4,24.5,29.93,SW,231,0.0,0.0,42,0.00,,,0.00,Wunderground v.1.15,2013-10-15 08:42:00,
2013-10-15 01:48:00,46.4,24.5,29.93,SW,231,0.0,0.0,42,0.00,,,0.00,Wunderground v.1.15,2013-10-15 08:48:00,
2013-10-15 01:50:00,46.4,23.9,29.93,SW,231,0.0,0.0,41,0.00,,,0.00,Wunderground v.1.15,2013-10-15 08:50:00,
2013-10-15 01:55:00,46.4,23.9,29.93,SW,231,0.0,0.0,41,0.00,,,0.00,Wunderground v.1.15,2013-10-15 08:55:00,
2013-10-15 02:01:00,46.5,24.0,29.93,SW,231,0.0,0.0,41,0.00,,,0.00,Wunderground v.1.15,2013-10-15 09:01:00,
2013-10-15 02:07:00,46.5,24.6,29.93,SW,231,0.0,0.0,42,0.00,,,0.00,Wunderground v.1.15,2013-10-15 09:07:00,
2013-10-15 02:12:00,46.7,24.2,29.93,SW,231,0.0,0.0,41,0.00,,,0.00,Wunderground v.1.15,2013-10-15 09:12:00,
2013-10-15 02:17:00,47.0,23.9,29.92,SW,231,0.0,0.0,40,0.00,,,0.00,Wunderground v.1.15,2013-10-15 09:17:00,
2013-10-15 02:23:00,47.3,24.2,29.92,SW,231,0.0,0.0,40,0.00,,,0.00,Wunderground v.1.15,2013-10-15 09:23:00,
2013-10-15 02:30:00,47.4,24.3,29.92,SW,231,0.0,0.0,40,0.00,,,0.00,Wunderground v.1.15,2013-10-15 09:30:00,
2013-10-15 02:35:00,47.4,23.7,29.91,SW,231,0.0,0.0,39,0.00,,,0.00,Wunderground v.1.15,2013-10-15 09:35:00,
2013-10-15 02:41:00,47.6,23.8,29.91,SW,231,0.0,0.0,39,0.00,,,0.00,Wunderground v.1.15,2013-10-15 09:41:00,
2013-10-15 02:46:00,47.6,23.8,29.91,SW,231,0.0,0.0,39,0.00,,,0.00,Wunderground v.1.15,2013-10-15 09:46:00,
2013-10-15 02:51:00,47.6,23.2,29.91,SW,231,0.0,0.0,38,0.00,,,0.00,Wunderground v.1.15,2013-10-15 09:51:00,
2013-10-15 02:57:00,47.6,22.6,29.91,SW,231,0.0,0.0,37,0.00,,,0.00,Wunderground v.1.15,2013-10-15 09:57:00,
2013-10-15 03:02:00,47.6,20.6,29.91,SW,231,0.0,0.0,34,0.00,,,0.00,Wunderground v.1.15,2013-10-15 10:02:00,
2013-10-15 03:07:00,47.7,20.7,29.91,SW,231,0.0,0.0,34,0.00,,,0.00,Wunderground v.1.15,2013-10-15 10:07:00,
2013-10-15 03:13:00,47.7,20.7,29.91,SW,231,0.0,0.0,34,0.00,,,0.00,Wunderground v.1.15,2013-10-15 10:13:00,
2013-10-15 03:19:00,47.9,20.8,29.90,SW,231,0.0,0.0,34,0.00,,,0.00,Wunderground v.1.15,2013-10-15 10:19:00,
2013-10-15 03:24:00,47.7,20.7,29.90,SW,231,0.0,0.0,34,0.00,,,0.00,Wunderground v.1.15,2013-10-15 10:24:00,
2013-10-15 03:29:00,47.7,20.0,29.90,SW,231,0.0,0.0,33,0.00,,,0.00,Wunderground v.1.15,2013-10-15 10:29:00,
2013-10-15 03:36:00,47.4,14.2,29.90,SW,231,0.0,0.0,26,0.00,,,0.00,Wunderground v.1.15,2013-10-15 10:36:00,
2013-10-15 03:42:00,47.6,12.5,29.90,SW,231,0.0,0.0,24,0.00,,,0.00,Wunderground v.1.15,2013-10-15 10:42:00,
2013-10-15 03:48:00,48.2,13.0,29.90,SW,231,0.0,0.0,24,0.00,,,0.00,Wunderground v.1.15,2013-10-15 10:48:00,
2013-10-15 03:53:00,48.5,13.3,29.90,SW,231,0.0,0.0,24,0.00,,,0.00,Wunderground v.1.15,2013-10-15 10:53:00,
2013-10-15 03:58:00,48.6,10.4,29.90,SW,231,0.0,0.0,21,0.00,,,0.00,Wunderground v.1.15,2013-10-15 10:58:00,
2013-10-15 04:04:00,48.9,10.6,29.90,SW,231,0.0,0.0,21,0.00,,,0.00,Wunderground v.1.15,2013-10-15 11:04:00,
2013-10-15 04:09:00,49.1,11.8,29.90,SW,231,0.0,0.0,22,0.00,,,0.00,Wunderground v.1.15,2013-10-15 11:09:00,
2013-10-15 04:15:00,49.1,10.8,29.90,SW,231,0.0,0.0,21,0.00,,,0.00,Wunderground v.1.15,2013-10-15 11:15:00,
2013-10-15 04:20:00,49.1,9.7,29.89,SW,231,0.0,0.0,20,0.00,,,0.00,Wunderground v.1.15,2013-10-15 11:20:00,
2013-10-15 04:25:00,49.4,11.0,29.89,SW,231,0.0,0.0,21,0.00,,,0.00,Wunderground v.1.15,2013-10-15 11:25:00,
2013-10-15 04:32:00,49.5,11.1,29.89,SW,231,0.0,0.0,21,0.00,,,0.00,Wunderground v.1.15,2013-10-15 11:32:00,
2013-10-15 04:38:00,49.6,11.2,29.89,SW,231,0.0,0.0,21,0.00,,,0.00,Wunderground v.1.15,2013-10-15 11:38:00,
2013-10-15 04:44:00,49.9,11.4,29.89,SW,231,0.0,0.0,21,0.00,,,0.00,Wunderground v.1.15,2013-10-15 11:44:00,
2013-10-15 04:50:00,49.9,10.4,29.90,SW,231,0.0,0.0,20,0.00,,,0.00,Wunderground v.1.15,2013-10-15 11:50:00,
2013-10-15 04:55:00,49.8,9.1,29.90,SW,231,0.0,0.0,19,0.00,,,0.00,Wunderground v.1.15,2013-10-15 11:55:00,
2013-10-15 05:01:00,49.6,9.0,29.89,SW,231,0.0,0.0,19,0.00,,,0.00,Wunderground v.1.15,2013-10-15 12:01:00,
2013-10-15 05:06:00,49.5,8.9,29.89,SW,231,0.0,0.0,19,0.00,,,0.00,Wunderground v.1.15,2013-10-15 12:06:00,
2013-10-15 05:12:00,49.4,8.8,29.89,SW,231,0.0,0.0,19,0.00,,,0.00,Wunderground v.1.15,2013-10-15 12:12:00,
2013-10-15 05:17:00,49.4,8.8,29.90,SW,231,0.0,0.0,19,0.00,,,0.00,Wunderground v.1.15,2013-10-15 12:17:00,
2013-10-15 05:23:00,49.2,10.9,29.90,SW,231,0.0,0.0,21,0.00,,,0.00,Wunderground v.1.15,2013-10-15 12:23:00,
2013-10-15 05:29:00,49.1,11.8,29.90,SW,231,0.0,0.0,22,0.00,,,0.00,Wunderground v.1.15,2013-10-15 12:29:00,
2013-10-15 05:35:00,48.9,11.7,29.90,SW,231,0.0,0.0,22,0.00,,,0.00,Wunderground v.1.15,2013-10-15 12:35:00,
2013-10-15 05:41:00,48.9,11.7,29.90,SW,231,0.0,0.0,22,0.00,,,0.00,Wunderground v.1.15,2013-10-15 12:41:00,
2013-10-15 05:46:00,48.9,11.7,29.90,SW,231,0.0,0.0,22,0.00,,,0.00,Wunderground v.1.15,2013-10-15 12:46:00,
2013-10-15 05:51:00,48.8,12.6,29.90,SW,231,0.0,0.0,23,0.00,,,0.00,Wunderground v.1.15,2013-10-15 12:51:00,
2013-10-15 05:57:00,48.9,11.7,29.90,SW,231,0.0,0.0,22,0.00,,,0.00,Wunderground v.1.15,2013-10-15 12:57:00,
2013-10-15 06:04:00,48.9,12.7,29.90,SW,231,0.0,0.0,23,0.00,,,0.00,Wunderground v.1.15,2013-10-15 13:04:00,
2013-10-15 06:09:00,48.8,12.6,29.90,SW,231,0.0,0.0,23,0.00,,,0.00,Wunderground v.1.15,2013-10-15 13:09:00,
2013-10-15 06:14:00,48.5,11.3,29.90,SW,231,0.0,0.0,22,0.00,,,0.00,Wunderground v.1.15,2013-10-15 13:14:00,
2013-10-15 06:20:00,48.5,10.3,29.90,SW,231,0.0,0.0,21,0.00,,,0.00,Wunderground v.1.15,2013-10-15 13:20:00,
2013-10-15 06:25:00,48.6,11.4,29.90,SW,231,0.0,0.0,22,0.00,,,0.00,Wunderground v.1.15,2013-10-15 13:25:00,
2013-10-15 06:30:00,48.8,10.5,29.91,SW,231,0.0,0.0,21,0.00,,,0.00,Wunderground v.1.15,2013-10-15 13:30:00,
2013-10-15 06:37:00,48.8,11.6,29.91,SW,231,0.0,0.0,22,0.00,,,0.00,Wunderground v.1.15,2013-10-15 13:37:00,
2013-10-15 06:43:00,48.6,13.4,29.91,SW,231,0.0,0.0,24,0.00,,,0.00,Wunderground v.1.15,2013-10-15 13:43:00,
2013-10-15 06:48:00,48.2,11.1,29.91,SW,231,0.0,0.0,22,0.00,,,0.00,Wunderground v.1.15,2013-10-15 13:48:00,
2013-10-15 06:53:00,48.0,11.9,29.91,SW,231,0.0,0.0,23,0.00,,,0.00,Wunderground v.1.15,2013-10-15 13:53:00,
2013-10-15 06:59:00,47.9,10.8,29.91,SW,231,0.0,0.0,22,0.00,,,0.00,Wunderground v.1.15,2013-10-15 13:59:00,
2013-10-15 07:05:00,48.0,10.9,29.92,SW,231,0.0,0.0,22,0.00,,,0.00,Wunderground v.1.15,2013-10-15 14:05:00,
2013-10-15 07:11:00,48.3,10.1,29.92,SW,231,0.0,0.0,21,0.00,,,0.00,Wunderground v.1.15,2013-10-15 14:11:00,
2013-10-15 07:16:00,48.5,11.3,29.92,SW,231,0.0,0.0,22,0.00,,,0.00,Wunderground v.1.15,2013-10-15 14:16:00,
2013-10-15 07:22:00,48.6,11.4,29.92,SW,231,0.0,0.0,22,0.00,,,0.00,Wunderground v.1.15,2013-10-15 14:22:00,
2013-10-15 07:28:00,48.6,12.4,29.92,SW,231,0.0,0.0,23,0.00,,,0.00,Wunderground v.1.15,2013-10-15 14:28:00,
2013-10-15 07:33:00,48.6,13.4,29.92,SW,231,0.0,0.0,24,0.00,,,0.00,Wunderground v.1.15,2013-10-15 14:33:00,
2013-10-15 07:39:00,48.6,12.4,29.92,SW,231,0.0,0.0,23,0.00,,,0.00,Wunderground v.1.15,2013-10-15 14:39:00,
2013-10-15 07:45:00,48.8,12.6,29.92,SW,231,0.0,0.0,23,0.00,,,0.00,Wunderground v.1.15,2013-10-15 14:45:00,
2013-10-15 07:51:00,49.2,13.9,29.92,SW,231,0.0,0.0,24,0.00,,,0.00,Wunderground v.1.15,2013-10-15 14:51:00,
2013-10-15 07:56:00,49.5,13.2,29.92,SW,231,0.0,0.0,23,0.00,,,0.00,Wunderground v.1.15,2013-10-15 14:56:00,
2013-10-15 08:02:00,50.1,14.7,29.93,SW,231,0.0,1.0,24,0.00,,,0.00,Wunderground v.1.15,2013-10-15 15:02:00,
2013-10-15 08:07:00,50.5,14.0,29.93,SW,231,0.0,1.0,23,0.00,,,0.00,Wunderground v.1.15,2013-10-15 15:07:00,
2013-10-15 08:12:00,50.7,15.2,29.93,SW,231,0.0,0.0,24,0.00,,,0.00,Wunderground v.1.15,2013-10-15 15:12:00,
2013-10-15 08:19:00,50.8,16.2,29.93,SW,231,0.0,0.0,25,0.00,,,0.00,Wunderground v.1.15,2013-10-15 15:19:00,
2013-10-15 08:24:00,51.0,17.3,29.93,SW,231,0.0,0.0,26,0.00,,,0.00,Wunderground v.1.15,2013-10-15 15:24:00,
2013-10-15 08:29:00,51.1,16.4,29.93,SW,231,0.0,0.0,25,0.00,,,0.00,Wunderground v.1.15,2013-10-15 15:29:00,
2013-10-15 08:36:00,51.4,17.6,29.93,SW,231,0.0,0.0,26,0.00,,,0.00,Wunderground v.1.15,2013-10-15 15:36:00,
2013-10-15 08:41:00,51.9,19.8,29.93,SW,231,0.0,0.0,28,0.00,,,0.00,Wunderground v.1.15,2013-10-15 15:41:00,
2013-10-15 08:46:00,52.3,17.5,29.93,SW,229,1.0,3.0,25,0.00,,,0.00,Wunderground v.1.15,2013-10-15 15:46:00,
2013-10-15 08:53:00,52.8,18.8,29.93,SW,229,1.0,1.0,26,0.00,,,0.00,Wunderground v.1.15,2013-10-15 15:53:00,
2013-10-15 08:59:00,53.1,18.2,29.93,SW,229,0.0,1.0,25,0.00,,,0.00,Wunderground v.1.15,2013-10-15 15:59:00,
2013-10-15 09:04:00,53.3,18.3,29.93,SW,228,0.0,3.0,25,0.00,,,0.00,Wunderground v.1.15,2013-10-15 16:04:00,
2013-10-15 09:10:00,53.6,15.6,29.93,SW,226,0.0,0.0,22,0.00,,,0.00,Wunderground v.1.15,2013-10-15 16:10:00,
2013-10-15 09:16:00,53.9,18.8,29.93,SW,226,0.0,1.0,25,0.00,,,0.00,Wunderground v.1.15,2013-10-15 16:16:00,
2013-10-15 09:21:00,54.1,18.1,29.93,SW,226,0.0,0.0,24,0.00,,,0.00,Wunderground v.1.15,2013-10-15 16:21:00,
2013-10-15 09:27:00,54.4,20.2,29.93,SW,223,0.0,2.0,26,0.00,,,0.00,Wunderground v.1.15,2013-10-15 16:27:00,
2013-10-15 09:33:00,54.7,19.5,29.93,SW,222,1.0,1.0,25,0.00,,,0.00,Wunderground v.1.15,2013-10-15 16:33:00,
2013-10-15 09:38:00,54.8,19.6,29.93,SW,222,0.0,1.0,25,0.00,,,0.00,Wunderground v.1.15,2013-10-15 16:38:00,
2013-10-15 09:43:00,55.3,18.1,29.93,SW,221,0.0,2.0,23,0.00,,,0.00,Wunderground v.1.15,2013-10-15 16:43:00,
2013-10-15 09:50:00,55.9,17.6,29.93,SW,220,0.0,0.0,22,0.00,,,0.00,Wunderground v.1.15,2013-10-15 16:50:00,
2013-10-15 09:55:00,56.6,18.1,29.93,SSW,200,0.0,2.0,22,0.00,,,0.00,Wunderground v.1.15,2013-10-15 16:55:00,
2013-10-15 10:00:00,56.7,19.3,29.93,SSW,199,0.0,4.0,23,0.00,,,0.00,Wunderground v.1.15,2013-10-15 17:00:00,
2013-10-15 10:06:00,56.3,17.9,29.93,SSW,199,0.0,4.0,22,0.00,,,0.00,Wunderground v.1.15,2013-10-15 17:06:00,
2013-10-15 10:11:00,56.0,19.7,29.93,SSW,199,0.0,0.0,24,0.00,,,0.00,Wunderground v.1.15,2013-10-15 17:11:00,
2013-10-15 10:18:00,56.0,21.6,29.94,SSW,198,0.0,0.0,26,0.00,,,0.00,Wunderground v.1.15,2013-10-15 17:18:00,
2013-10-15 10:24:00,55.4,21.0,29.94,SSE,163,0.0,0.0,26,0.00,,,0.00,Wunderground v.1.15,2013-10-15 17:24:00,
2013-10-15 10:29:00,55.4,21.0,29.94,South,171,0.0,0.0,26,0.00,,,0.00,Wunderground v.1.15,2013-10-15 17:29:00,
2013-10-15 10:36:00,55.6,23.0,29.93,South,180,0.0,1.0,28,0.00,,,0.00,Wunderground v.1.15,2013-10-15 17:36:00,
2013-10-15 10:40:00,56.2,20.8,29.93,South,182,0.0,0.0,25,0.00,,,0.00,Wunderground v.1.15,2013-10-15 17:40:00,
2013-10-15 10:47:00,56.9,23.2,29.94,South,182,0.0,0.0,27,0.00,,,0.00,Wunderground v.1.15,2013-10-15 17:47:00,
2013-10-15 10:52:00,57.5,21.9,29.94,South,182,0.0,0.0,25,0.00,,,0.00,Wunderground v.1.15,2013-10-15 17:52:00,
2013-10-15 10:59:00,57.0,22.4,29.94,South,185,0.0,0.0,26,0.00,,,0.00,Wunderground v.1.15,2013-10-15 17:59:00,
2013-10-15 11:04:00,56.7,23.0,29.94,South,186,0.0,4.0,27,0.00,,,0.00,Wunderground v.1.15,2013-10-15 18:04:00,
2013-10-15 11:09:00,58.4,22.7,29.94,South,186,0.0,0.0,25,0.00,,,0.00,Wunderground v.1.15,2013-10-15 18:09:00,
2013-10-15 11:15:00,59.5,23.6,29.94,South,186,0.0,0.0,25,0.00,,,0.00,Wunderground v.1.15,2013-10-15 18:15:00,
2013-10-15 11:20:00,59.5,22.6,29.94,South,185,0.0,0.0,24,0.00,,,0.00,Wunderground v.1.15,2013-10-15 18:20:00,
2013-10-15 11:27:00,59.2,25.2,29.94,South,185,0.0,0.0,27,0.00,,,0.00,Wunderground v.1.15,2013-10-15 18:27:00,
2013-10-15 11:33:00,58.7,22.9,29.93,South,186,0.0,0.0,25,0.00,,,0.00,Wunderground v.1.15,2013-10-15 18:33:00,
2013-10-15 11:38:00,58.3,23.5,29.93,South,186,0.0,0.0,26,0.00,,,0.00,Wunderground v.1.15,2013-10-15 18:38:00,
2013-10-15 11:44:00,58.0,25.0,29.93,South,186,0.0,0.0,28,0.00,,,0.00,Wunderground v.1.15,2013-10-15 18:44:00,
2013-10-15 11:49:00,57.5,24.6,29.93,WNW,294,0.0,1.0,28,0.00,,,0.00,Wunderground v.1.15,2013-10-15 18:49:00,
2013-10-15 11:55:00,57.6,23.8,29.93,WNW,294,0.0,1.0,27,0.00,,,0.00,Wunderground v.1.15,2013-10-15 18:55:00,
2013-10-15 12:00:00,58.3,24.4,29.93,WNW,289,0.0,4.0,27,0.00,,,0.00,Wunderground v.1.15,2013-10-15 19:00:00,
2013-10-15 12:06:00,57.5,25.5,29.93,WNW,289,0.0,4.0,29,0.00,,,0.00,Wunderground v.1.15,2013-10-15 19:06:00,
2013-10-15 12:11:00,57.3,24.4,29.93,WNW,288,0.0,0.0,28,0.00,,,0.00,Wunderground v.1.15,2013-10-15 19:11:00,
2013-10-15 12:17:00,57.8,24.0,29.93,WNW,284,0.0,0.0,27,0.00,,,0.00,Wunderground v.1.15,2013-10-15 19:17:00,
2013-10-15 12:22:00,58.3,24.4,29.93,WNW,284,0.0,0.0,27,0.00,,,0.00,Wunderground v.1.15,2013-10-15 19:22:00,
2013-10-15 12:27:00,58.6,24.7,29.93,WNW,285,0.0,0.0,27,0.00,,,0.00,Wunderground v.1.15,2013-10-15 19:27:00,
2013-10-15 12:34:00,58.7,25.6,29.92,SW,229,0.0,1.0,28,0.00,,,0.00,Wunderground v.1.15,2013-10-15 19:34:00,
2013-10-15 12:40:00,58.9,24.9,29.92,SW,227,0.0,0.0,27,0.00,,,0.00,Wunderground v.1.15,2013-10-15 19:40:00,
2013-10-15 12:45:00,58.9,26.7,29.92,SW,227,0.0,1.0,29,0.00,,,0.00,Wunderground v.1.15,2013-10-15 19:45:00,
2013-10-15 12:51:00,58.4,23.6,29.92,WSW,249,0.0,1.0,26,0.00,,,0.00,Wunderground v.1.15,2013-10-15 19:51:00,
2013-10-15 12:57:00,58.6,25.6,29.92,South,181,0.0,1.0,28,0.00,,,0.00,Wunderground v.1.15,2013-10-15 19:57:00,
2013-10-15 13:03:00,57.6,23.8,29.92,WNW,294,1.0,4.0,27,0.00,,,0.00,Wunderground v.1.15,2013-10-15 20:03:00,
2013-10-15 13:08:00,58.0,24.2,29.92,SSW,192,0.0,4.0,27,0.00,,,0.00,Wunderground v.1.15,2013-10-15 20:08:00,
2013-10-15 13:13:00,59.0,23.2,29.92,West,279,0.0,3.0,25,0.00,,,0.00,Wunderground v.1.15,2013-10-15 20:13:00,
2013-10-15 13:20:00,58.3,25.3,29.91,West,279,1.0,1.0,28,0.00,,,0.00,Wunderground v.1.15,2013-10-15 20:20:00,
2013-10-15 13:26:00,59.9,23.9,29.91,SSE,159,0.0,4.0,25,0.00,,,0.00,Wunderground v.1.15,2013-10-15 20:26:00,
2013-10-15 13:32:00,60.1,26.0,29.90,SSE,159,0.0,0.0,27,0.00,,,0.00,Wunderground v.1.15,2013-10-15 20:32:00,
2013-10-15 13:37:00,59.3,24.4,29.90,WSW,244,0.0,2.0,26,0.00,,,0.00,Wunderground v.1.15,2013-10-15 20:37:00,
2013-10-15 13:42:00,58.7,24.8,29.90,WSW,253,1.0,1.0,27,0.00,,,0.00,Wunderground v.1.15,2013-10-15 20:42:00,
2013-10-15 13:48:00,58.9,25.8,29.90,WSW,253,0.0,1.0,28,0.00,,,0.00,Wunderground v.1.15,2013-10-15 20:48:00,
2013-10-15 13:53:00,59.3,25.3,29.90,WSW,248,0.0,0.0,27,0.00,,,0.00,Wunderground v.1.15,2013-10-15 20:53:00,
2013-10-15 13:59:00,59.6,24.6,29.90,WSW,248,0.0,6.0,26,0.00,,,0.00,Wunderground v.1.15,2013-10-15 20:59:00,
2013-10-15 14:04:00,58.9,24.9,29.90,WSW,248,0.0,6.0,27,0.00,,,0.00,Wunderground v.1.15,2013-10-15 21:04:00,
2013-10-15 14:10:00,58.9,25.8,29.90,WSW,251,0.0,3.0,28,0.00,,,0.00,Wunderground v.1.15,2013-10-15 21:10:00,
2013-10-15 14:16:00,58.6,26.4,29.90,WNW,290,1.0,3.0,29,0.00,,,0.00,Wunderground v.1.15,2013-10-15 21:16:00,
2013-10-15 14:21:00,59.0,25.0,29.90,West,266,1.0,1.0,27,0.00,,,0.00,Wunderground v.1.15,2013-10-15 21:21:00,
2013-10-15 14:27:00,59.6,23.7,29.90,West,267,0.0,1.0,25,0.00,,,0.00,Wunderground v.1.15,2013-10-15 21:27:00,
2013-10-15 14:32:00,59.2,24.3,29.90,West,267,0.0,0.0,26,0.00,,,0.00,Wunderground v.1.15,2013-10-15 21:32:00,
2013-10-15 14:37:00,58.7,23.9,29.90,SW,232,0.0,3.0,26,0.00,,,0.00,Wunderground v.1.15,2013-10-15 21:37:00,
2013-10-15 14:42:00,58.4,23.6,29.90,NW,314,1.0,2.0,26,0.00,,,0.00,Wunderground v.1.15,2013-10-15 21:42:00,
2013-10-15 14:48:00,58.6,25.6,29.90,NW,310,1.0,3.0,28,0.00,,,0.00,Wunderground v.1.15,2013-10-15 21:48:00,
2013-10-15 14:53:00,59.0,25.0,29.90,NW,306,0.0,1.0,27,0.00,,,0.00,Wunderground v.1.15,2013-10-15 21:53:00,
2013-10-15 14:58:00,59.2,25.2,29.90,West,279,0.0,1.0,27,0.00,,,0.00,Wunderground v.1.15,2013-10-15 21:58:00,
2013-10-15 15:04:00,59.2,24.3,29.90,West,275,0.0,7.0,26,0.00,,,0.00,Wunderground v.1.15,2013-10-15 22:04:00,
2013-10-15 15:09:00,59.0,25.0,29.90,West,275,1.0,1.0,27,0.00,,,0.00,Wunderground v.1.15,2013-10-15 22:09:00,
2013-10-15 15:14:00,59.0,25.0,29.90,WNW,287,1.0,3.0,27,0.00,,,0.00,Wunderground v.1.15,2013-10-15 22:14:00,
2013-10-15 15:20:00,59.5,25.5,29.89,WNW,295,1.0,3.0,27,0.00,,,0.00,Wunderground v.1.15,2013-10-15 22:20:00,
2013-10-15 15:25:00,59.3,25.3,29.89,WSW,248,1.0,3.0,27,0.00,,,0.00,Wunderground v.1.15,2013-10-15 22:25:00,
2013-10-15 15:30:00,58.7,23.9,29.89,WNW,284,2.0,4.0,26,0.00,,,0.00,Wunderground v.1.15,2013-10-15 22:30:00,
2013-10-15 15:37:00,58.4,23.6,29.89,West,281,2.0,4.0,26,0.00,,,0.00,Wunderground v.1.15,2013-10-15 22:37:00,
2013-10-15 15:42:00,58.3,23.5,29.89,NNW,328,1.0,3.0,26,0.00,,,0.00,Wunderground v.1.15,2013-10-15 22:42:00,
2013-10-15 15:47:00,58.4,23.6,29.89,NW,325,1.0,3.0,26,0.00,,,0.00,Wunderground v.1.15,2013-10-15 22:47:00,
2013-10-15 15:53:00,59.8,23.9,29.89,SW,232,0.0,1.0,25,0.00,,,0.00,Wunderground v.1.15,2013-10-15 22:53:00,
2013-10-15 15:59:00,60.7,24.6,29.89,WSW,237,0.0,6.0,25,0.00,,,0.00,Wunderground v.1.15,2013-10-15 22:59:00,
2013-10-15 16:04:00,59.2,24.3,29.89,WNW,284,1.0,6.0,26,0.00,,,0.00,Wunderground v.1.15,2013-10-15 23:04:00,
2013-10-15 16:10:00,59.2,24.3,29.89,WSW,257,1.0,3.0,26,0.00,,,0.00,Wunderground v.1.15,2013-10-15 23:10:00,
2013-10-15 16:16:00,58.6,22.8,29.89,SW,234,1.0,4.0,25,0.00,,,0.00,Wunderground v.1.15,2013-10-15 23:16:00,
2013-10-15 16:21:00,58.6,24.7,29.89,WNW,288,1.0,1.0,27,0.00,,,0.00,Wunderground v.1.15,2013-10-15 23:21:00,
2013-10-15 16:27:00,58.6,23.8,29.89,SW,228,0.0,4.0,26,0.00,,,0.00,Wunderground v.1.15,2013-10-15 23:27:00,
2013-10-15 16:33:00,58.6,24.7,29.89,West,274,0.0,2.0,27,0.00,,,0.00,Wunderground v.1.15,2013-10-15 23:33:00,
2013-10-15 16:38:00,59.5,25.5,29.89,West,273,0.0,2.0,27,0.00,,,0.00,Wunderground v.1.15,2013-10-15 23:38:00,
2013-10-15 16:43:00,58.9,24.9,29.89,NNW,336,1.0,7.0,27,0.00,,,0.00,Wunderground v.1.15,2013-10-15 23:43:00,
2013-10-15 16:50:00,58.9,24.9,29.90,NW,311,1.0,1.0,27,0.00,,,0.00,Wunderground v.1.15,2013-10-15 23:50:00,
2013-10-15 16:55:00,58.9,24.9,29.90,NW,311,0.0,1.0,27,0.00,,,0.00,Wunderground v.1.15,2013-10-15 23:55:00,
2013-10-15 17:01:00,58.0,24.2,29.90,NW,311,0.0,8.0,27,0.00,,,0.00,Wunderground v.1.15,2013-10-16 00:01:00,
2013-10-15 17:06:00,57.8,24.0,29.90,NW,309,0.0,8.0,27,0.00,,,0.00,Wunderground v.1.15,2013-10-16 00:06:00,
2013-10-15 17:12:00,57.8,23.1,29.90,NW,305,0.0,0.0,26,0.00,,,0.00,Wunderground v.1.15,2013-10-16 00:12:00,
2013-10-15 17:18:00,57.3,23.6,29.90,NW,305,0.0,0.0,27,0.00,,,0.00,Wunderground v.1.15,2013-10-16 00:18:00,
2013-10-15 17:23:00,57.6,23.8,29.90,NW,305,0.0,0.0,27,0.00,,,0.00,Wunderground v.1.15,2013-10-16 00:23:00,
2013-10-15 17:29:00,57.8,24.9,29.90,NW,305,0.0,0.0,28,0.00,,,0.00,Wunderground v.1.15,2013-10-16 00:29:00,
2013-10-15 17:34:00,57.5,23.7,29.91,NW,305,0.0,2.0,27,0.00,,,0.00,Wunderground v.1.15,2013-10-16 00:34:00,
2013-10-15 17:39:00,57.0,23.3,29.91,NW,305,0.0,0.0,27,0.00,,,0.00,Wunderground v.1.15,2013-10-16 00:39:00,
2013-10-15 17:45:00,56.3,22.7,29.91,NW,305,0.0,0.0,27,0.00,,,0.00,Wunderground v.1.15,2013-10-16 00:45:00,
2013-10-15 17:52:00,55.9,23.2,29.91,NW,305,0.0,0.0,28,0.00,,,0.00,Wunderground v.1.15,2013-10-16 00:52:00,
2013-10-15 17:57:00,55.4,23.6,29.91,NW,305,0.0,0.0,29,0.00,,,0.00,Wunderground v.1.15,2013-10-16 00:57:00,
2013-10-15 18:04:00,55.0,23.3,29.91,NW,305,0.0,7.0,29,0.00,,,0.00,Wunderground v.1.15,2013-10-16 01:04:00,
2013-10-15 18:09:00,54.5,23.7,29.91,NW,305,0.0,0.0,30,0.00,,,0.00,Wunderground v.1.15,2013-10-16 01:09:00,
2013-10-15 18:14:00,54.2,23.4,29.91,NW,305,0.0,0.0,30,0.00,,,0.00,Wunderground v.1.15,2013-10-16 01:14:00,
2013-10-15 18:21:00,53.6,23.7,29.92,NW,305,0.0,0.0,31,0.00,,,0.00,Wunderground v.1.15,2013-10-16 01:21:00,
2013-10-15 18:26:00,53.2,24.1,29.92,NW,305,0.0,0.0,32,0.00,,,0.00,Wunderground v.1.15,2013-10-16 01:26:00,
2013-10-15 18:31:00,52.6,23.5,29.92,NW,305,0.0,0.0,32,0.00,,,0.00,Wunderground v.1.15,2013-10-16 01:31:00,
2013-10-15 18:37:00,52.2,23.9,29.92,NW,305,0.0,0.0,33,0.00,,,0.00,Wunderground v.1.15,2013-10-16 01:37:00,
2013-10-15 18:43:00,51.9,22.9,29.92,NW,305,0.0,0.0,32,0.00,,,0.00,Wunderground v.1.15,2013-10-16 01:43:00,
2013-10-15 18:48:00,51.6,22.7,29.92,NW,305,0.0,0.0,32,0.00,,,0.00,Wunderground v.1.15,2013-10-16 01:48:00,
2013-10-15 18:54:00,51.3,23.1,29.92,NW,305,0.0,0.0,33,0.00,,,0.00,Wunderground v.1.15,2013-10-16 01:54:00,
2013-10-15 19:00:00,50.8,23.4,29.92,NW,305,0.0,0.0,34,0.00,,,0.00,Wunderground v.1.15,2013-10-16 02:00:00,
2013-10-15 19:05:00,50.4,23.1,29.92,NW,305,0.0,4.0,34,0.00,,,0.00,Wunderground v.1.15,2013-10-16 02:05:00,
2013-10-15 19:10:00,50.2,22.2,29.92,NW,305,0.0,0.0,33,0.00,,,0.00,Wunderground v.1.15,2013-10-16 02:10:00,
2013-10-15 19:15:00,50.1,22.8,29.93,NW,305,0.0,0.0,34,0.00,,,0.00,Wunderground v.1.15,2013-10-16 02:15:00,
2013-10-15 19:22:00,49.8,23.2,29.93,NW,305,0.0,0.0,35,0.00,,,0.00,Wunderground v.1.15,2013-10-16 02:22:00,
2013-10-15 19:27:00,49.6,23.0,29.93,NW,305,0.0,0.0,35,0.00,,,0.00,Wunderground v.1.15,2013-10-16 02:27:00,
2013-10-15 19:34:00,49.5,23.6,29.94,NW,305,0.0,0.0,36,0.00,,,0.00,Wunderground v.1.15,2013-10-16 02:34:00,
2013-10-15 19:39:00,49.2,23.4,29.94,NW,305,0.0,0.0,36,0.00,,,0.00,Wunderground v.1.15,2013-10-16 02:39:00,
2013-10-15 19:44:00,49.2,23.4,29.94,NW,305,0.0,0.0,36,0.00,,,0.00,Wunderground v.1.15,2013-10-16 02:44:00,
2013-10-15 19:50:00,49.2,23.4,29.94,NW,305,0.0,0.0,36,0.00,,,0.00,Wunderground v.1.15,2013-10-16 02:50:00,
2013-10-15 19:56:00,49.1,23.3,29.94,NW,305,0.0,0.0,36,0.00,,,0.00,Wunderground v.1.15,2013-10-16 02:56:00,
2013-10-15 20:01:00,49.1,23.3,29.94,NW,305,0.0,0.0,36,0.00,,,0.00,Wunderground v.1.15,2013-10-16 03:01:00,
2013-10-15 20:06:00,49.2,23.4,29.94,NW,305,0.0,0.0,36,0.00,,,0.00,Wunderground v.1.15,2013-10-16 03:06:00,
2013-10-15 20:11:00,49.1,23.3,29.94,NW,305,0.0,0.0,36,0.00,,,0.00,Wunderground v.1.15,2013-10-16 03:11:00,
2013-10-15 20:18:00,48.9,23.1,29.94,NW,305,0.0,0.0,36,0.00,,,0.00,Wunderground v.1.15,2013-10-16 03:18:00,
2013-10-15 20:24:00,48.8,23.0,29.94,NW,305,0.0,0.0,36,0.00,,,0.00,Wunderground v.1.15,2013-10-16 03:24:00,
2013-10-15 20:30:00,48.8,23.0,29.94,NW,305,0.0,0.0,36,0.00,,,0.00,Wunderground v.1.15,2013-10-16 03:30:00,
2013-10-15 20:36:00,48.8,23.0,29.95,NW,305,0.0,0.0,36,0.00,,,0.00,Wunderground v.1.15,2013-10-16 03:36:00,
2013-10-15 20:41:00,48.6,22.8,29.95,NW,305,0.0,0.0,36,0.00,,,0.00,Wunderground v.1.15,2013-10-16 03:41:00,
2013-10-15 20:46:00,48.6,22.8,29.95,NW,305,0.0,0.0,36,0.00,,,0.00,Wunderground v.1.15,2013-10-16 03:46:00,
2013-10-15 20:52:00,48.9,22.4,29.95,NW,305,0.0,0.0,35,0.00,,,0.00,Wunderground v.1.15,2013-10-16 03:52:00,
2013-10-15 20:58:00,48.6,22.8,29.95,NW,305,0.0,0.0,36,0.00,,,0.00,Wunderground v.1.15,2013-10-16 03:58:00,
2013-10-15 21:01:00,48.5,22.7,29.96,NW,305,0.0,1.0,36,0.00,,,0.00,Wunderground v.1.15,2013-10-16 04:01:00,
2013-10-15 21:03:00,48.3,22.5,29.96,NW,305,0.0,1.0,36,0.00,,,0.00,Wunderground v.1.15,2013-10-16 04:03:00,
2013-10-15 21:04:00,48.3,22.5,29.96,NW,305,0.0,1.0,36,0.00,,,0.00,Wunderground v.1.15,2013-10-16 04:04:00,
2013-10-15 21:07:00,48.2,22.5,29.96,NW,305,0.0,1.0,36,0.00,,,0.00,Wunderground v.1.15,2013-10-16 04:07:00,
2013-10-15 21:12:00,48.0,22.3,29.96,NW,305,0.0,0.0,36,0.00,,,0.00,Wunderground v.1.15,2013-10-16 04:12:00,
2013-10-15 21:17:00,47.9,22.2,29.96,NW,305,0.0,0.0,36,0.00,,,0.00,Wunderground v.1.15,2013-10-16 04:17:00,
2013-10-15 21:23:00,47.9,19.4,29.96,NW,305,0.0,0.0,32,0.00,,,0.00,Wunderground v.1.15,2013-10-16 04:23:00,
2013-10-15 21:27:00,48.0,18.8,29.96,NW,305,0.0,0.0,31,0.00,,,0.00,Wunderground v.1.15,2013-10-16 04:27:00,
2013-10-15 21:32:00,48.0,18.8,29.96,NW,305,0.0,0.0,31,0.00,,,0.00,Wunderground v.1.15,2013-10-16 04:32:00,
2013-10-15 21:37:00,48.0,17.2,29.96,NW,305,0.0,0.0,29,0.00,,,0.00,Wunderground v.1.15,2013-10-16 04:37:00,
2013-10-15 21:43:00,48.3,18.3,29.96,NW,304,0.0,3.0,30,0.00,,,0.00,Wunderground v.1.15,2013-10-16 04:43:00,
2013-10-15 21:48:00,48.2,18.2,29.96,SSE,154,1.0,3.0,30,0.00,,,0.00,Wunderground v.1.15,2013-10-16 04:48:00,
2013-10-15 21:53:00,48.3,18.3,29.96,SSE,154,0.0,1.0,30,0.00,,,0.00,Wunderground v.1.15,2013-10-16 04:53:00,
2013-10-15 21:59:00,48.5,19.2,29.96,SSE,153,1.0,4.0,31,0.00,,,0.00,Wunderground v.1.15,2013-10-16 04:59:00,
2013-10-15 22:05:00,48.5,19.2,29.96,SSE,153,1.0,4.0,31,0.00,,,0.00,Wunderground v.1.15,2013-10-16 05:05:00,
2013-10-15 22:11:00,48.6,19.3,29.96,SSE,153,0.0,1.0,31,0.00,,,0.00,Wunderground v.1.15,2013-10-16 05:11:00,
2013-10-15 22:18:00,48.3,19.8,29.96,SSE,153,0.0,1.0,32,0.00,,,0.00,Wunderground v.1.15,2013-10-16 05:18:00,
2013-10-15 22:23:00,48.3,20.5,29.96,SSE,153,0.0,0.0,33,0.00,,,0.00,Wunderground v.1.15,2013-10-16 05:23:00,
2013-10-15 22:29:00,48.5,20.7,29.96,SSE,153,1.0,1.0,33,0.00,,,0.00,Wunderground v.1.15,2013-10-16 05:29:00,
2013-10-15 22:35:00,48.5,19.9,29.96,SSE,153,1.0,1.0,32,0.00,,,0.00,Wunderground v.1.15,2013-10-16 05:35:00,
2013-10-15 22:40:00,48.2,19.7,29.96,SSE,153,0.0,0.0,32,0.00,,,0.00,Wunderground v.1.15,2013-10-16 05:40:00,
2013-10-15 22:46:00,47.7,19.2,29.96,SSE,153,0.0,0.0,32,0.00,,,0.00,Wunderground v.1.15,2013-10-16 05:46:00,
2013-10-15 22:51:00,47.4,18.2,29.96,SSE,153,0.0,0.0,31,0.00,,,0.00,Wunderground v.1.15,2013-10-16 05:51:00,
2013-10-15 22:57:00,47.1,15.6,29.96,SSE,153,0.0,0.0,28,0.00,,,0.00,Wunderground v.1.15,2013-10-16 05:57:00,
2013-10-15 23:04:00,47.4,16.7,29.96,SSE,153,0.0,5.0,29,0.00,,,0.00,Wunderground v.1.15,2013-10-16 06:04:00,
2013-10-15 23:09:00,47.6,15.2,29.96,SSE,153,0.0,0.0,27,0.00,,,0.00,Wunderground v.1.15,2013-10-16 06:09:00,
2013-10-15 23:15:00,47.4,15.0,29.96,SSE,153,0.0,0.0,27,0.00,,,0.00,Wunderground v.1.15,2013-10-16 06:15:00,
2013-10-15 23:21:00,47.0,14.7,29.96,SSE,153,0.0,0.0,27,0.00,,,0.00,Wunderground v.1.15,2013-10-16 06:21:00,
2013-10-15 23:26:00,47.1,13.9,29.96,SSE,153,0.0,3.0,26,0.00,,,0.00,Wunderground v.1.15,2013-10-16 06:26:00,
2013-10-15 23:31:00,47.1,14.8,29.96,SSE,153,0.0,0.0,27,0.00,,,0.00,Wunderground v.1.15,2013-10-16 06:31:00,
2013-10-15 23:38:00,47.3,15.0,29.96,SSE,153,0.0,0.0,27,0.00,,,0.00,Wunderground v.1.15,2013-10-16 06:38:00,
2013-10-15 23:43:00,47.1,14.8,29.96,SSE,153,0.0,0.0,27,0.00,,,0.00,Wunderground v.1.15,2013-10-16 06:43:00,
2013-10-15 23:48:00,47.1,14.8,29.96,SSE,153,0.0,0.0,27,0.00,,,0.00,Wunderground v.1.15,2013-10-16 06:48:00,
2013-10-15 23:53:00,47.0,14.7,29.96,SSE,153,0.0,1.0,27,0.00,,,0.00,Wunderground v.1.15,2013-10-16 06:53:00,
2013-10-15 23:59:00,46.8,15.4,29.96,SSE,153,0.0,0.0,28,0.00,,,0.00,Wunderground v.1.15,2013-10-16 06:59:00,